Other Public Products
Issued by NWS Charleston, SC

Current Version | Previous Version | Graphics & Text | Print | Product List | Glossary On
Versions: 1 2 3 4 5 6 7 8 9 10 11 12 13 14 15 16 17 18 19 20 21 22 23 24 25 26 27 28 29 30 31 32 33 34 35 36 37 38 39 40 41 42 43 44 45 46 47 48 49 50
000
FPUS82 KCHS 200027
OPUCHS

TEST...KCHS/KSAV Gateway Observations...TEST
National Weather Service Charleston SC
800 PM EDT WED JUL 19 2017

NOTE: "fair" indicates few or no clouds below 12,000 feet with no
significant weather and/or obstructions to visibility.

SCZ050-WAZ558-NCZ071-TXZ119-213-PAZ071-DCZ001-FLZ074-172-MI076-
NYZ176-178-MAZ016-IL014-TNZ027-NJZ106-GAZ044-MD014-200100-

...Gateway Observations for Charleston International...

CITY           SKY/WX    TMP DP  RH WIND       PRES   REMARKS
Chas Airport   LGT RAIN  73  71  93 S7        30.07F
6HR MIN TEMP:  70; 6HR MAX TEMP:  91; 6HR PCP:  1.68;

Seattle        MOSUNNY   76  51  41 CALM      30.02F
6HR MIN TEMP:  63; 6HR MAX TEMP:  77;

Charlotte      PTCLDY    80  69  69 S7        30.08R
6HR MIN TEMP:  77; 6HR MAX TEMP:  94; 6HR PCP:  0.18;

Dallas DFW     MOSUNNY   95  70  44 S13       30.01F HX 101
6HR MIN TEMP:  93; 6HR MAX TEMP:  98;

Dallas Love    MOSUNNY   95  69  42 SE15      30.03S HX 100
6HR MIN TEMP:  92; 6HR MAX TEMP:  97;

Philladelphia  PTCLDY    88  71  57 S8        29.99R HX  94
6HR MIN TEMP:  88; 6HR MAX TEMP:  96;

Wash National  PTCLDY    91  70  49 SW12      30.00R HX  96
6HR MIN TEMP:  91; 6HR MAX TEMP:  97;

Baltimore      PTCLDY    87  75  67 S5        30.00R HX  96
6HR MIN TEMP:  87; 6HR MAX TEMP:  96;

Miami          LGT RAIN  80  73  79 N8        30.11R
6HR MIN TEMP:  81; 6HR MAX TEMP:  89; 6HR PCP:  0.08;

Detroit        MOSUNNY   81  72  74 S10       30.04F
6HR MIN TEMP:  81; 6HR MAX TEMP:  91; 6HR PCP: TRACE;

Newark         PTCLDY    90  66  45 W9        29.95S HX  92
6HR MIN TEMP:  90; 6HR MAX TEMP:  95;

Laguardia      PTCLDY    92  66  42 W10       29.94S HX  94
6HR MIN TEMP:  90; 6HR MAX TEMP:  94;

J F K          PTCLDY    80  75  84 S16       29.96S
6HR MIN TEMP:  80; 6HR MAX TEMP:  90;

Boston Logan   PTCLDY    88  63  43 W10G17    29.91R
6HR MIN TEMP:  88; 6HR MAX TEMP:  93;

Ft. Lauderdale LGT RAIN  78  74  87 W6        30.10R
6HR MIN TEMP:  78; 6HR MAX TEMP:  87; 6HR PCP: TRACE;

Chicago O`Hare PTSUNNY   82  68  62 NE7       30.05S
6HR MIN TEMP:  82; 6HR MAX TEMP:  88;

Chicago Midway PTSUNNY   81  69  67 E8        30.04F
6HR MIN TEMP:  81; 6HR MAX TEMP:  89;

Houston Bush   PTSUNNY   90  75  61 S3        30.05S HX 100
6HR MIN TEMP:  88; 6HR MAX TEMP:  94;

Houston Hobby  MOSUNNY   91  76  61 S8        30.05S HX 103
6HR MIN TEMP:  87; 6HR MAX TEMP:  95; 6HR PCP: TRACE;

Nashville      PTSUNNY   81  73  76 CALM      30.10F
6HR MIN TEMP:  80; 6HR MAX TEMP:  96; 6HR PCP:  0.02;

Atlanta        PTCLDY    89  67  47 NW8       30.09R HX  92
6HR MIN TEMP:  89; 6HR MAX TEMP:  93;


$$

GAZ044-118-TXZ119-213-NCZ071-DCZ001-MDZ014-506-PAZ021-071-NJZ106-
NYZ176-178-MAZ106-OHZ011-021-055-MIZ076-KYZ091-ILZ014-INZ047-
MNZ060-ONZ431-200100-

...Gateway Observations for Savannah International...

CITY           SKY/WX    TMP DP  RH WIND       PRES   REMARKS
Savannah Arpt  TSTM      77  71  82 N15       30.12R
6HR MIN TEMP:  84; 6HR MAX TEMP:  92; 6HR PCP: TRACE;

Atlanta        PTCLDY    89  67  47 NW8       30.09R HX  92
6HR MIN TEMP:  89; 6HR MAX TEMP:  93;

Charlotte      PTCLDY    80  69  69 S7        30.08R
6HR MIN TEMP:  77; 6HR MAX TEMP:  94; 6HR PCP:  0.18;

Dallas DFW     MOSUNNY   95  70  44 S13       30.01F HX 101
6HR MIN TEMP:  93; 6HR MAX TEMP:  98;

Houston Bush   PTSUNNY   90  75  61 S3        30.05S HX 100
6HR MIN TEMP:  88; 6HR MAX TEMP:  94;

Wash National  PTCLDY    91  70  49 SW12      30.00R HX  96
6HR MIN TEMP:  91; 6HR MAX TEMP:  97;

Wash Dulles    PTCLDY    88  69  53 W3        30.02R HX  92
6HR MIN TEMP:  88; 6HR MAX TEMP:  93;

Baltimore      PTCLDY    87  75  67 S5        30.00R HX  96
6HR MIN TEMP:  87; 6HR MAX TEMP:  96;

Philadelphia   PTCLDY    88  71  57 S8        29.99R HX  94
6HR MIN TEMP:  88; 6HR MAX TEMP:  96;

Newark         PTCLDY    90  66  45 W9        29.95S HX  92
6HR MIN TEMP:  90; 6HR MAX TEMP:  95;

Laguardia      PTCLDY    92  66  42 W10       29.94S HX  94
6HR MIN TEMP:  90; 6HR MAX TEMP:  94;

J F K          PTCLDY    80  75  84 S16       29.96S
6HR MIN TEMP:  80; 6HR MAX TEMP:  90;

Boston         PTCLDY    88  63  43 W10G17    29.91R
6HR MIN TEMP:  88; 6HR MAX TEMP:  93;

Pittsburg      PTCLDY    85  68  56 W6        30.07S
6HR MIN TEMP:  85; 6HR MAX TEMP:  89;

Akron          PTCLDY    86  68  54 W7        30.07F
6HR MIN TEMP:  86; 6HR MAX TEMP:  91;

Cleveland      PTCLDY    88  66  48 NW6       30.06F HX  90
6HR MIN TEMP:  88; 6HR MAX TEMP:  92;

Cincinnati     MOSUNNY   86  65  49 NW8       30.09S
6HR MIN TEMP:  84; 6HR MAX TEMP:  89;

Columbus       CLEAR     83  71  65 W8        30.06S
Detroit        MOSUNNY   81  72  74 S10       30.04F
6HR MIN TEMP:  81; 6HR MAX TEMP:  91; 6HR PCP: TRACE;

Chicago O`Hare PTSUNNY   82  68  62 NE7       30.05S
6HR MIN TEMP:  82; 6HR MAX TEMP:  88;

Minneapolis    CLOUDY    71  65  81 S12       29.93R
6HR MIN TEMP:  67; 6HR MAX TEMP:  83; 6HR PCP:  0.43;

Indianapolis   MOSUNNY   85  72  65 W8        30.07F HX  91
6HR MIN TEMP:  85; 6HR MAX TEMP:  88;

Toronto Canada PTCLDY    81  68  65 N15G21    30.00R

$$




USA.gov is the U.S. government's official web portal to all federal, state and local government web resources and services.